GLOBALSTAR M049 [-]

Last updated on Fri Dec 29 2023 00:02:56 GMT+0000 (Coordinated Universal Time)

1 25771U 99031B 23361.94304956 -.00000120 00000+0 -18888-2 0 9998 2 25771 51.9904 331.5909 0002667 188.7593 171.3158 11.12101295 57656

Satellite not in orbit

GLOBALSTAR M049 [-]